sat.trackr.live / text

‹ back to catalog

ONEWEB-0580

NORAD 54648 · 2022-166G

PAYLOAD ACTIVE UNKNOWN

§ Identity

Operator
Country
UK
Launch date
2022-12-08
Launch site
AFETR
Launch vehicle
Mass (kg)
RCS (m²)

Purposes: comms

External: N2YO · Heavens-Above · Gunter

§ Orbital elements

Epoch: 2026-05-25T05:29:33.141120Z

Period
108.94 min
Inclination
87.9253°
Eccentricity
0.0002407
Mean motion
13.21826187 rev/d
Perigee alt
1,175.9 km
Apogee alt
1,179.6 km
Semi-major
7,555.9 km
B*
2.6097e-4
RAAN
248.5496°
Arg perigee
99.3956°
Mean anomaly
260.7450°
Rev number
16,851

§ Raw data

ONEWEB-05801 54648U 22166G   26145.22885580  .00000121  00000+0  26097-3 0  99902 54648  87.9253 248.5496 0002407  99.3956 260.7450 13.21826187168519

JSON: /api/v1/satellites/54648 · /tle

For live sub-satellite position, see the globe view (requires WebGL).

§ Visibility from observer

Set your observer location to see the next 7 days of passes ≥ 10°. The values pass through the URL so the page stays shareable.

No JS? Fill the form by hand. The geolocation button needs JavaScript.